TIME,DELAY(SENSOR),PRES,OXYGEN,RAWTEMP,T(OPTODE),TCPHASE,FLUOR,BETA(BETA700),BETA(BETA412),BETA(BETA440),CDOM,C(CSC),ED(ED412.20),ED(ED444.00),ED(ED489.60),ED(ED554.30),LU(LU412.10),LU(LU443.90),LU(LU489.70),LU(LU554.70),COMP,TILTX,TILTY,CHECK
1373776616,5812,866.3699951171875000,30.3277606964111330,564.6074218750000000,4.3430161476135250,57.0880393981933600,54,99,100,78,81,15618,0,0,0,0,2147121563,2147765888,2147574601,2147563657,436,2,13,9838
1373780212,5810,949.5100097656250000,33.1003112792968750,572.1633911132812000,4.1083130836486820,56.7053489685058600,54,97,98,78,81,15615,0,0,0,0,2147122230,2147765906,2147570240,2147564370,2868,2,13,40165
1373783812,5811,972.7299804687500000,31.7158298492431640,575.1370239257812000,4.0158119201660160,56.9590415954589840,56,97,100,77,81,15612,0,0,0,0,2147123757,2147770514,2147572726,2147566838,262,2,13,9903
1373787412,5808,985.6400146484375000,30.5003795623779300,575.6171264648438000,4.0008740425109860,57.1630210876464840,54,96,101,76,82,15614,0,0,0,0,2147124278,2147767762,2147573403,2147567936,3428,2,13,2914
1373791012,5810,991.1099853515625000,28.7707195281982420,575.1411743164062000,4.0156841278076170,57.4489212036132800,55,96,99,78,81,15614,0,0,0,0,2147126272,2147771940,2147570569,2147566080,69,2,13,40039
1373794612,5808,991.9000244140625000,30.5515499114990230,575.4398803710938000,4.0063858032226560,57.1491203308105500,54,98,99,78,81,15614,0,0,0,0,2147122642,2147772214,2147575497,2147567552,445,2,13,1896
1373798212,5811,998.4500122070312000,34.5718193054199200,575.7670288085938000,3.9962060451507570,56.5077095031738300,55,97,100,77,82,15614,0,0,0,0,2147124178,2147771830,2147572123,2147573238,3283,2,13,25021
1373801812,5807,998.2600097656250000,33.1906509399414060,575.4951782226562000,4.0046668052673340,56.7257385253906250,55,99,100,77,82,15611,0,0,0,0,2147123236,2147768374,2147568182,2147565933,485,3,13,202
1373805412,5809,1003.7100219726562000,34.7573318481445300,575.3275146484375000,4.0098838806152340,56.4756889343261700,55,97,99,77,81,15609,0,0,0,0,2147123236,2147770139,2147574665,2147567625,333,2,13,24258
1373809012,5806,1000.4500122070312000,26.0300292968750000,575.2072753906250000,4.0136260986328125,57.9169197082519500,55,99,100,77,82,15599,0,0,0,0,2147119936,2147770916,2147573366,2147566436,139,2,13,61461
1373812612,5810,995.7700195312500000,31.3509101867675780,576.1173706054688000,3.9853000640869140,57.0254402160644500,55,99,99,77,82,15610,0,0,0,0,2147121234,2147768603,2147572306,2147567414,160,3,13,43190
1373816212,5810,998.3400268554688000,32.0788612365722660,576.5103759765625000,3.9730660915374756,56.9132194519043000,55,96,99,78,82,15610,0,0,0,0,2147123218,2147767149,2147574153,2147569307,345,2,13,9883
1373819812,5812,1000.2800292968750000,27.6349506378173830,576.8748168945312000,3.9617230892181396,57.6548194885253900,55,97,98,78,81,15610,0,0,0,0,2147120411,2147772160,2147572644,2147569481,74,3,13,48742
1373823412,5806,1003.8699951171875000,29.9407005310058600,576.5781250000000000,3.9709570407867430,57.2663497924804700,54,97,99,79,82,15609,0,0,0,0,2147122816,2147770752,2147576475,2147567424,263,3,13,18439
1373827012,5810,1008.5100097656250000,33.1132888793945300,575.6951293945312000,3.9984459877014160,56.7400283813476560,55,99,100,77,80,15610,0,0,0,0,2147126162,2147772059,2147572973,2147569371,201,3,13,47513
1373830612,5810,1000.1900024414062000,24.2013797760009770,575.6036987304688000,4.0012888908386230,58.2432403564453100,55,97,99,77,81,15606,0,0,0,0,2147126253,2147774765,2147570989,2147567195,3355,2,13,36425
1373834212,5812,1004.0000000000000000,29.8377704620361330,576.5032958984375000,3.9732880592346190,57.2785606384277340,55,96,99,77,82,15612,0,0,0,0,2147124086,2147765385,2147577353,2147564288,254,3,13,46480
1373837812,5811,1004.7600097656250000,30.5511207580566400,576.7144775390625000,3.9667110443115234,57.1635589599609400,55,97,98,77,81,15607,0,0,0,0,2147122486,2147769014,2147573421,2147567286,283,3,13,63912
1373841412,5810,1003.3900146484375000,26.1831207275390620,576.1472778320312000,3.9843690395355225,57.8976783752441400,55,96,100,78,81,15607,0,0,0,0,2147123574,2147766802,2147573266,2147566171,194,2,13,52308
1373845012,5808,1006.9000244140625000,21.8569698333740230,576.1052246093750000,3.9856820106506348,58.6727600097656250,55,95,98,77,82,15608,0,0,0,0,2147122057,2147766802,2147571026,2147567451,84,3,13,15703
1373848612,5809,1009.7299804687500000,21.5424900054931640,576.0806884765625000,3.9864408969879150,58.7244796752929700,55,96,100,78,82,15605,0,0,0,0,2147122605,2147769060,2147574948,2147568932,283,2,13,23045
1373852212,5815,1003.5100097656250000,28.2381706237792970,576.0791015625000000,3.9864919185638428,57.5471191406250000,55,95,99,77,82,15598,0,0,0,0,2147120896,2147769417,2147577462,2147568868,26,2,13,10358
1373855812,5808,1002.2399902343750000,27.3929996490478500,576.4854736328125000,3.9738430976867676,57.6907005310058600,56,98,99,78,82,15589,0,0,0,0,2147126738,2147772781,2147571766,2147566774,131,2,13,28062
1373859412,5811,1007.2600097656250000,27.1914691925048830,576.1013183593750000,3.9858000278472900,57.7177200317382800,56,96,99,78,81,15597,0,0,0,0,2147125586,2147768155,2147573933,2147569526,222,2,13,35962
1373863012,5810,1000.3800048828125000,31.8758697509765620,576.6959838867188000,3.9672870635986330,56.9438209533691400,55,98,99,78,82,15598,0,0,0,0,2147123940,2147765824,2147575177,2147569993,3440,2,13,7884
1373866612,5813,1002.7199707031250000,25.6872692108154300,577.5209960937500000,3.9416010379791260,57.9906692504882800,55,102,99,77,83,15596,0,0,0,0,2147121042,2147771008,2147575323,2147570569,192,2,13,58572
1373870212,5806,1004.9199829101562000,31.4173297882080080,577.0540161132812000,3.9561419486999510,57.0226707458496100,56,98,99,77,81,15597,0,0,0,0,2147124388,2147767926,2147571273,2147569645,218,2,13,8570
1373873812,5812,1006.9400024414062000,30.8269596099853500,577.0264282226562000,3.9570031166076660,57.1270484924316400,55,96,98,77,82,15597,0,0,0,0,2147122157,2147769828,2147572105,2147566491,69,2,13,43288
1373877412,5809,1001.7100219726562000,30.4798603057861330,577.0703735351562000,3.9556310176849365,57.1781806945800800,55,98,99,78,81,15595,0,0,0,0,2147127323,2147768832,2147575424,2147564918,210,2,13,62808
1373881012,5809,1001.7500000000000000,27.1160602569580080,577.3577880859375000,3.9466819763183594,57.7417602539062500,54,97,100,78,81,15595,0,0,0,0,2147124123,2147762203,2147574573,2147568009,151,3,13,61092
1373884612,5812,1006.7700195312500000,34.5283393859863300,577.0913696289062000,3.9549789428710938,56.5298194885253900,55,97,98,78,81,15595,0,0,0,0,2147122066,2147768658,2147571657,2147568192,418,2,13,44019
1373888212,5811,1010.5399780273438000,32.0662918090820300,576.7022705078125000,3.9670910835266113,56.9179801940918000,54,97,99,78,82,15591,0,0,0,0,2147121536,2147766555,2147577316,2147567643,3402,2,13,9869
1373891812,5811,1011.6599731445312000,29.1346092224121100,576.3331298828125000,3.9785840511322020,57.3956108093261700,54,98,99,77,81,15589,0,0,0,0,2147122349,2147765915,2147574208,2147568438,270,2,13,11309
1373895412,5810,1006.4699707031250000,33.5473213195800800,576.6232299804688000,3.9695549011230470,56.6800498962402340,55,97,99,78,82,15582,0,0,0,0,2147120228,2147765312,2147574125,2147569161,3100,2,13,65448
1373899012,5810,1008.7199707031250000,21.4499206542968750,576.8499145507812000,3.9624979496002197,58.7490692138671900,54,97,99,78,82,15578,0,0,0,0,2147122806,2147769691,2147573229,2147566464,251,2,13,48177
1373902612,5806,1008.6500244140625000,26.6367492675781250,577.0695800781250000,3.9556579589843750,57.8284492492675800,55,97,98,78,81,15579,0,0,0,0,2147120073,2147769490,2147572516,2147568868,618,2,13,11230
1373906212,5810,1009.2899780273438000,25.1997890472412100,576.9174804687500000,3.9603919982910156,58.0781593322753900,55,97,100,79,82,15580,0,0,0,0,2147123392,2147771858,2147571218,2147566107,240,2,13,22271
1373909812,5810,1010.4799804687500000,29.3030796051025400,576.7514038085938000,3.9655630588531494,57.3701705932617200,55,97,98,78,82,15565,0,0,0,0,2147123776,2147770550,2147576192,2147568813,124,3,13,7048
1373913412,5810,1011.2500000000000000,28.9146194458007800,576.8195800781250000,3.9634399414062500,57.4359092712402340,55,97,99,78,80,15566,0,0,0,0,2147125970,2147772617,2147575250,2147569856,179,2,13,590
1373917012,5809,1004.3699951171875000,33.1374702453613300,576.7269287109375000,3.9663259983062744,56.7423782348632800,54,98,99,78,81,15565,0,0,0,0,2147122368,2147770020,2147577206,2147566226,523,2,13,34345
1373918455,5807,1010.8499755859375000,29.2639293670654300,577.0557861328125000,3.9560871124267580,57.3755683898925800,54,97,100,77,81,15566,0,0,0,0,2147123026,2147769234,2147577408,2147566491,103,3,13,42405
1373947446,5809,847.4400024414062000,29.3657398223876950,563.5106811523438000,4.3770427703857420,57.2336616516113300,55,98,100,78,82,15601,0,0,0,0,2147120502,2147771008,2147564736,2147567862,3144,2,13,23173
1373951042,5808,916.1300048828125000,28.1900405883789060,568.8527832031250000,4.2112059593200680,57.4794692993164060,55,98,99,78,81,15599,0,0,0,0,2147121188,2147772425,2147573668,2147566372,513,2,13,13093
1373954642,5810,925.4299926757812000,25.1664295196533200,569.1998901367188000,4.2004218101501465,58.0117301940918000,55,100,99,79,82,15599,0,0,0,0,2147122066,2147767725,2147569810,2147565120,3360,2,13,25091
1373958242,5808,955.7100219726562000,30.3220691680908200,572.7413940429688000,4.0903401374816895,57.1586990356445300,55,98,99,77,82,15598,0,0,0,0,2147121764,2147765906,2147569956,2147566994,155,2,13,64692
1373961842,5811,961.3200073242188000,25.6538391113281250,572.5092163085938000,4.0975608825683590,57.9590797424316400,55,117,100,77,81,15597,0,0,0,0,2147119698,2147766793,2147570651,2147565184,1,2,13,43049
1373965442,5808,958.7600097656250000,29.3000106811523440,572.5889282226562000,4.0950808525085450,57.3344688415527340,55,97,99,78,81,15597,0,0,0,0,2147123712,2147775076,2147574308,2147564114,3523,2,13,59502
1373969042,5809,986.8699951171875000,26.1888999938964840,575.4387817382812000,4.0064201354980470,57.8896217346191400,54,97,99,77,82,15592,0,0,0,0,2147125229,2147772891,2147578523,2147566317,91,3,13,43544
1373972642,5806,989.3099975585938000,22.1582908630371100,575.9296264648438000,3.9911439418792725,58.6107482910156250,55,97,100,77,82,15600,0,0,0,0,2147119835,2147770258,2147572224,2147570066,223,2,13,43321
1373976242,5809,993.1199951171875000,24.6166896820068360,575.5228271484375000,4.0038070678710940,58.1616897583007800,55,97,101,77,81,15597,0,0,0,0,2147122861,2147768475,2147569773,2147568201,201,2,13,20944
1373979842,5811,992.0000000000000000,26.2709197998046880,574.7714843750000000,4.0271868705749510,57.8646812438964840,55,98,99,77,82,15595,0,0,0,0,2147122130,2147772196,2147570953,2147566976,3407,2,13,31117
1373983442,5809,992.3300170898438000,22.1069602966308600,575.8787231445312000,3.9927310943603516,58.6159591674804700,54,97,101,78,82,15596,0,0,0,0,2147119734,2147768941,2147572553,2147567972,176,3,13,51894
1373987042,5809,993.0599975585938000,25.1872196197509770,576.5692749023438000,3.9712309837341310,58.0772399902343750,54,97,100,78,82,15595,0,0,0,0,2147122404,2147769682,2147569682,2147569984,33,3,13,57060
1373990642,5808,993.8499755859375000,27.6248607635498050,576.4630126953125000,3.9745430946350098,57.6548118591308600,55,102,99,78,80,15596,0,0,0,0,2147120128,2147763995,2147563282,2147565979,39,2,13,38871
1374069842,5809,1001.2700195312500000,26.8456592559814450,576.6892700195312000,3.9674949645996094,57.7865791320800800,54,96,99,76,81,15587,0,0,0,0,2147122258,2147767917,2147574811,2147564416,206,3,13,29298
1374073442,5811,1002.5700073242188000,31.8810691833496100,576.7570190429688000,3.9653871059417725,56.9432983398437500,55,96,99,78,82,15586,0,0,0,0,2147119689,2147770194,2147573238,2147565558,3463,2,13,51437
1374077042,5810,997.7800292968750000,31.7779998779296880,576.8405761718750000,3.9627859592437744,56.9665489196777340,55,98,99,78,82,15590,0,0,0,0,2147120749,2147764854,2147570048,2147568173,189,2,13,65253
1374091255,5810,1013.1199951171875000,28.2926692962646500,576.0264892578125000,3.9881310462951660,57.5340309143066400,55,104,100,80,81,15587,0,0,0,0,2147120841,2147770258,2147570843,2147567789,272,2,13,56040
1374124169,5811,841.4600219726562000,27.8845405578613280,562.5369873046875000,4.4072442054748535,57.4829597473144500,55,99,98,77,81,15625,0,0,0,0,2147118582,2147768201,2147570642,2147568713,452,3,13,9410
1374199747,5810,998.3400268554688000,28.6153793334960940,575.3244018554688000,4.0099811553955080,57.4777793884277340,56,96,99,78,80,15605,0,0,0,0,2147121069,2147762761,2147571913,2147565138,3308,2,13,56785
1374203347,5811,1000.0599975585938000,22.0883808135986330,575.6840209960938000,3.9987890720367430,58.6237297058105500,54,96,100,78,80,15607,0,0,0,0,2147118921,2147766244,2147572516,2147566994,3392,3,13,59674
1374206947,5810,1000.5499877929688000,27.2812309265136720,575.2531127929688000,4.0122008323669430,57.6979484558105500,55,98,99,78,80,15605,0,0,0,0,2147118774,2147765814,2147571428,2147568329,3265,2,13,19963
1374221347,5812,998.2800292968750000,29.7655696868896500,575.5905151367188000,4.0016989707946780,57.2780494689941400,53,96,98,76,81,15602,0,0,0,0,2147118994,2147767625,2147570331,2147566418,37,3,13,12284
1374228547,5809,1004.1599731445312000,27.8130798339843750,574.5559082031250000,4.0338950157165530,57.6009902954101560,55,97,99,77,82,15497,0,0,0,0,2147121334,2147765028,2147575716,2147566089,176,2,13,46429
1374235747,5810,1000.8800048828125000,27.1716499328613280,575.0045166015625000,4.0199379920959470,57.7112808227539060,56,96,99,77,82,15494,0,0,0,0,2147120987,2147764973,2147568320,2147566381,3570,2,13,51742
1374239347,5809,1001.5900268554688000,25.3260803222656250,575.3685302734375000,4.0086078643798830,58.0431709289550800,55,95,99,77,81,15479,0,0,0,0,2147120256,2147767195,2147572544,2147567076,200,3,13,63389
1374242947,5811,1001.2100219726562000,21.1090793609619140,575.6807250976562000,3.9988939762115480,58.7993202209472660,55,96,98,77,80,15481,0,0,0,0,2147120539,2147766838,2147569426,2147566848,3562,2,13,49278
1374246547,5810,996.8499755859375000,26.0692291259765620,575.9055786132812000,3.9918920993804930,57.9147109985351560,56,98,100,77,82,15479,0,0,0,0,2147120429,2147772973,2147573074,2147566354,3147,2,13,65529
1374250147,5812,995.9500122070312000,25.5838298797607420,576.3566284179688000,3.9778540134429930,57.9973106384277340,56,98,99,77,81,15482,0,0,0,0,2147121481,2147766793,2147567643,2147568064,30,2,12,17896
1374253747,5809,1001.2399902343750000,29.6977996826171880,576.3218994140625000,3.9789330959320070,57.3009910583496100,55,98,99,77,82,15541,0,0,0,0,2147118262,2147772608,2147568731,2147566436,347,2,13,27531
1374257347,5810,1003.9799804687500000,30.3519496917724600,576.3751220703125000,3.9772779941558840,57.1898918151855500,55,98,99,77,81,15542,0,0,0,0,2147120576,2147768731,2147567808,2147566619,3162,2,13,25636
1374260947,5809,1001.5499877929688000,28.9223594665527340,576.7106933593750000,3.9668290615081787,57.4313316345214840,54,96,99,77,81,15544,0,0,0,0,2147119597,2147767588,2147569837,2147562898,128,2,13,54875
1374264055,5808,998.8300170898438000,27.8848991394042970,576.4776000976562000,3.9740869998931885,57.6093788146972660,55,97,99,77,80,15543,0,0,0,0,2147120438,2147771273,2147572891,2147570432,3579,2,13,42220
